Weather History for Gulkana, AK

Change the Weather History Date:

Monday, September 15, 2014

  Actual Average Record
Temperature  
Mean Temperature 54 °F -  
Max Temperature 62 °F 56 °F 70 °F (2010)
Min Temperature 45 °F 34 °F 12 °F (2004)
Degree Days  
Heating Degree Days 11    
Growing Degree Days 4 (Base 50)    
Moisture  
Dew Point 42 °F    
Average Humidity 67    
Maximum Humidity 93    
Minimum Humidity 34    
Precipitation  
Precipitation 0.08 in - - ()
Sea Level Pressure  
Sea Level Pressure 29.69 in    
Wind  
Wind Speed 10 mph (SSE)    
Max Wind Speed 21 mph    
Max Gust Speed 29 mph    
Visibility 10 miles    
Events Rain    
Averages and records for this station are not official NWS values.
T = Trace of Precipitation, MM = Missing Value Source: NWS Daily Summary

Daily Weather History Graph

Daily Weather History Graph

Search for Another Location

Airport:

Trip Planner

Search our weather history database for the weather conditions in past years. The results will help you decide how hot, cold, wet, or windy it might be!

Date:

Astronomy

Sep. 15, 2014 Rise Set
Actual Time 7:07 AM AKDT 8:04 PM AKDT
Civil Twilight 6:22 AM AKDT 8:49 PM AKDT
Nautical Twilight 5:25 AM AKDT 9:45 PM AKDT
Astronomical Twilight 4:19 AM AKDT 10:51 PM AKDT
Moon 11:05 PM AKDT (9/15) 4:06 PM AKDT (9/15)
Length of Visible Light 14h 27m
Length of Day
12h 56m
Waning Gibbous, 53% of the Moon is Illuminated
Sep 15
Waning Gibbous
Sep 15
Last Quarter
Sep 23
New
Oct 1
First Quarter
Oct 8
Full

Hourly Weather History & Observations

Time (AKDT) Temp. Windchill Dew Point Humidity Pressure Visibility Wind Dir Wind Speed Gust Speed Precip Events Conditions
12:53 AM 55.0 °F - 44.1 °F 67% 29.68 in 10.0 mi SE 9.2 mph - N/A   Scattered Clouds
1:53 AM 54.0 °F - 44.1 °F 69% 29.67 in 10.0 mi East 6.9 mph - 0.00 in   Overcast
2:53 AM 54.0 °F - 44.1 °F 69% 29.66 in 10.0 mi East 9.2 mph - N/A   Mostly Cloudy
3:53 AM 54.0 °F - 44.1 °F 69% 29.64 in 10.0 mi East 5.8 mph - N/A   Mostly Cloudy
4:53 AM 53.1 °F - 44.1 °F 71% 29.64 in 10.0 mi ESE 3.5 mph - N/A   Overcast
5:53 AM 48.9 °F - 44.1 °F 83% 29.64 in 9.0 mi South 3.5 mph - 0.00 in Rain Light Rain
6:53 AM 48.9 °F - 46.9 °F 93% 29.64 in 4.0 mi SSE 4.6 mph - 0.07 in Rain Rain
7:53 AM 50.0 °F - 46.0 °F 86% 29.65 in 10.0 mi SE 8.1 mph - 0.02 in   Mostly Cloudy
8:53 AM 48.9 °F - 46.9 °F 93% 29.65 in 10.0 mi SSE 8.1 mph - N/A   Mostly Cloudy
9:53 AM 51.1 °F - 48.0 °F 89% 29.65 in 10.0 mi SSE 8.1 mph - N/A   Scattered Clouds
10:53 AM 53.1 °F - 48.0 °F 83% 29.67 in 10.0 mi SSE 10.4 mph - N/A   Scattered Clouds
11:53 AM 54.0 °F - 48.0 °F 80% 29.68 in 10.0 mi South 12.7 mph - N/A   Mostly Cloudy
12:53 PM 55.0 °F - 45.0 °F 69% 29.69 in 10.0 mi SSE 12.7 mph - N/A   Partly Cloudy
1:53 PM 59.0 °F - 39.9 °F 49% 29.70 in 10.0 mi SSE 18.4 mph 28.8 mph N/A   Clear
2:53 PM 61.0 °F - 39.9 °F 46% 29.69 in 10.0 mi SSE 19.6 mph 25.3 mph N/A   Clear
3:53 PM 60.1 °F - 39.0 °F 46% 29.70 in 10.0 mi South 20.7 mph 28.8 mph N/A   Clear
4:53 PM 57.9 °F - 39.0 °F 49% 29.70 in 10.0 mi South 19.6 mph 25.3 mph N/A   Clear
5:53 PM 57.9 °F - 39.0 °F 49% 29.71 in 10.0 mi South 18.4 mph 25.3 mph N/A   Clear
6:53 PM 55.9 °F - 37.0 °F 49% 29.71 in 10.0 mi South 13.8 mph 23.0 mph N/A   Clear
7:53 PM 53.1 °F - 37.9 °F 57% 29.72 in 10.0 mi SSE 12.7 mph - N/A   Clear
8:53 PM 51.1 °F - 37.9 °F 61% 29.73 in 10.0 mi South 13.8 mph - N/A   Clear
9:53 PM 48.0 °F - 37.9 °F 68% 29.75 in 10.0 mi SSE 11.5 mph - N/A   Clear
10:53 PM 46.0 °F 41.4 °F 37.9 °F 73% 29.76 in 10.0 mi SSE 9.2 mph - N/A   Clear
11:53 PM 45.0 °F 40.6 °F 37.9 °F 76% 29.77 in 10.0 mi SSE 8.1 mph - N/A   Clear